#timestamp,LO_Frequency,Hit,StdDev 
1568332815.6,286047000.8,N
1568332835.5,286047000.9,N
1568332855.3,286047000.0,N
1568332875.2,286047000.7,N
1568332895.9,286047000.7,N
1568332915.7,286046998.1,N
1568332935.6,286047002.7,N
1568332955.4,286047000.7,N
1568332975.3,286046998.1,N
1568332995.1,286047001.2,N
1568332996.0,286047001.2,N
1568333015.8,286047001.2,N
1568333035.7,286046999.2,N
1568333055.5,286046996.8,N
1568333075.4,286046997.3,N
1568333095.2,286046999.1,N
1568333115.0,286046998.1,N
1568333115.9,286046998.1,N
1568333135.8,286046997.0,N
1568333155.6,286046999.6,N
1568333175.4,286046998.8,N
1568333195.3,286046998.2,N
1568333215.1,286046998.7,N
1568333235.9,286046999.0,N
1568333255.7,286047000.8,N
1568333275.5,286047000.6,N
1568333295.4,286047002.6,N
1568333315.2,286047002.7,N
1568333335.1,286046999.8,N
1568333336.0,286046999.8,N
1568333355.8,286047002.4,N
1568333375.6,286047002.5,N
1568333395.5,286047001.4,N
1568333415.3,286047001.7,N
1568333435.1,286047002.7,N
1568333455.9,286047002.8,N
1568333475.7,286046998.2,N
1568333495.6,286047001.2,N
1568333515.4,286047001.2,N
1568333535.3,286047000.1,N
1568333555.1,286047000.2,N
1568333556.0,286047000.2,N
1568333575.8,286047002.7,N
1568333595.7,286047000.9,N
1568333615.5,286046999.9,N
1568333635.3,286047002.3,N
1568333655.2,286046999.9,N
1568333675.0,286046999.8,N
1568333675.9,286046999.8,N
1568333695.8,286046998.3,N
1568333715.6,286046998.5,N
1568333735.4,286047000.8,N
1568333755.8,286046998.7,N
1568333775.6,286047001.1,N
1568333795.4,286046998.6,N
1568333815.3,286046998.3,N
1568333835.1,286047002.4,N
1568333855.9,286047000.7,N
1568333875.7,286047000.4,N
1568333895.5,286046999.8,N
1568333915.4,286047001.4,N
1568333935.2,286047002.3,N
1568333955.1,286047001.0,N
1568333956.0,286047001.0,N
1568333975.8,286047001.0,N
1568333995.6,286046998.2,N
1568334015.5,286047000.1,N
1568334035.3,286047002.1,N
1568334055.2,286047004.2,Y
1568334075.9,286047004.1,P
1568334095.7,286047001.9,N
1568334115.6,286047002.0,N
1568334135.4,286047001.5,N
1568334155.3,286047002.2,N
1568334175.1,286046999.9,N
1568334176.0,286046999.9,N
1568334195.8,286047002.4,N
1568334215.7,286047000.4,N
1568334235.5,286046999.8,N
1568334255.3,286046999.9,N
1568334275.2,286047000.3,N
1568334295.0,286047000.0,N
1568334295.9,286047000.0,N
1568334315.8,286047000.5,N
1568334335.6,286047000.0,N
1568334355.4,286046999.9,N
1568334375.3,286047001.0,N
1568334395.1,286046999.8,N
1568334415.9,286047002.2,N
1568334435.7,286047000.5,N
1568334455.5,286046999.7,N
1568334475.4,286047002.3,N
1568334495.2,286047001.5,N
1568334515.1,286047000.4,N
1568334516.0,286047000.4,N
1568334535.8,286047000.1,N
1568334555.6,286047000.6,N
1568334575.5,286047000.5,N
1568334595.3,286047000.1,N
1568334615.2,286047002.6,N
1568334635.9,286047001.9,N
1568334655.7,286047001.7,N
1568334675.6,286047004.0,Y
1568334695.4,286047003.8,P
1568334715.2,286047006.0,P
1568334735.1,286047003.6,N
1568334736.0,286047003.6,N
1568334755.8,286047001.6,N
1568334775.7,286047004.3,N
1568334795.5,286047004.4,N
1568334815.3,286047004.4,N
1568334835.2,286047004.0,N
1568334855.0,286047003.7,N
1568334855.9,286047003.7,N
1568334875.8,286047004.3,Y
1568334895.6,286046998.7,P
1568334915.4,286046999.9,N
1568334935.3,286047001.0,N
1568334955.1,286046999.8,N
1568334975.8,286046999.8,N
1568334995.7,286047002.3,N
1568335015.5,286047000.6,N
1568335035.4,286046998.5,N
1568335055.2,286047000.8,N
1568335075.0,286047001.1,N
1568335076.0,286047001.1,N
1568335095.8,286047001.1,N
1568335115.6,286046998.2,N
1568335135.5,286047000.9,N
1568335155.3,286047002.8,N
1568335175.1,286047000.5,N
1568335195.9,286047000.6,N
1568335215.7,286047001.2,N
1568335235.6,286047000.8,N
1568335255.4,286046998.4,N
1568335275.2,286046998.7,N
1568335295.1,286046998.2,N
1568335296.0,286046998.2,N
1568335315.8,286046998.1,N
1568335335.6,286047001.2,N
1568335355.5,286046998.2,N
1568335375.3,286046999.1,N
1568335395.7,286046996.6,N
1568335415.6,286046996.5,N
1568335435.4,286046999.2,N
1568335455.3,286046997.0,N
1568335475.1,286046997.7,N
1568335495.8,286046997.8,N
1568335515.7,286046998.0,N
1568335535.5,286046997.5,N
1568335555.4,286046997.9,N
1568335575.2,286046997.7,N
1568335595.0,286046997.3,N
1568335595.9,286046997.3,N
1568335615.8,286046996.7,N
1568335635.6,286046995.3,N
1568335655.4,286046997.1,N
1568335675.3,286046998.0,N
1568335695.1,286046997.2,N
1568335715.9,286046997.6,N
1568335735.7,286046996.6,N
1568335755.5,286046997.8,N
1568335775.4,286046997.3,N
1568335795.2,286046995.7,Y
1568335815.1,286046996.5,P
1568335816.0,286046996.5,P
1568335835.8,286046999.2,N
1568335855.6,286046996.5,Y
1568335875.5,286047000.5,P
1568335895.3,286047000.3,N
1568335915.1,286046998.5,N
1568335935.9,286047000.8,N
1568335955.7,286047000.5,N
1568335975.6,286046999.9,N
1568335995.4,286047000.7,N
1568336015.2,286046998.1,N
1568336035.1,286047000.7,N
1568336036.0,286047000.7,N
1568336055.8,286046998.1,N
1568336075.7,286047000.4,N
1568336095.5,286047000.0,N
1568336115.3,286047000.8,N
1568336135.2,286046998.6,N
1568336155.0,286047001.0,N
1568336155.9,286047001.0,N
1568336175.8,286047001.1,N
1568336195.6,286047000.6,N
1568336215.4,286047001.1,N
1568336235.3,286047000.8,N
1568336255.1,286047000.9,N
1568336275.9,286046999.9,N
1568336295.7,286047000.3,N
1568336315.5,286047000.5,N
1568336335.4,286047000.6,N
1568336355.2,286047000.4,N
1568336375.0,286047000.4,N
1568336375.9,286047000.4,N
1568336395.8,286047000.6,N
